| time (UTC) | temp F | wind direction | speed knots | gust knots | rain 1hr in | rain 24hr in | rain mn in | humidity % | barometer mb |
| 20260507040003 | 51 | 0 | 0.0 | 0.0 | 0.00 | 0.06 | 0.06 | 26 | 1017.9 |
| 20260507035415 | 51 | 0 | 0.0 | 0.0 | 0.00 | 0.06 | 0.06 | 26 | 1017.9 |
| 20260507034515 | 51 | 0 | 0.0 | 0.0 | 0.00 | 0.06 | 0.06 | 27 | 1017.9 |
| 20260507033615 | 52 | 0 | 0.0 | 0.0 | 0.00 | 0.06 | 0.06 | 26 | 1017.9 |
| 20260507032715 | 51 | 0 | 0.0 | 0.0 | 0.00 | 0.06 | 0.06 | 26 | 1017.9 |
| 20260507031815 | 51 | 0 | 0.0 | 0.0 | 0.00 | 0.06 | 0.06 | 26 | 1017.9 |
| 20260507030915 | 52 | 0 | 0.0 | 0.0 | 0.00 | 0.06 | 0.06 | 26 | 1017.9 |
| 20260507030015 | 52 | 0 | 0.0 | 0.0 | 0.00 | 0.06 | 0.06 | 26 | 1017.9 |
| 20260507025403 | 52 | 0 | 0.0 | 0.0 | 0.00 | 0.06 | 0.06 | 26 | 1017.9 |
| 20260507024503 | 52 | 0 | 0.0 | 0.0 | 0.00 | 0.06 | 0.06 | 26 | 1017.9 |
| 20260507023615 | 53 | 0 | 0.0 | 0.0 | 0.00 | 0.06 | 0.06 | 25 | 1017.9 |
| 20260507022715 | 53 | 0 | 0.0 | 0.0 | 0.00 | 0.06 | 0.06 | 25 | 1017.9 |
| 20260507021803 | 54 | 0 | 0.0 | 0.0 | 0.00 | 0.06 | 0.06 | 25 | 1017.9 |
| 20260507020903 | 54 | 0 | 0.0 | 0.0 | 0.00 | 0.06 | 0.06 | 24 | 1017.9 |
| 20260507020003 | 55 | 0 | 0.0 | 0.0 | 0.00 | 0.06 | 0.06 | 23 | 1017.9 |
| 20260507015415 | 55 | 0 | 0.0 | 0.0 | 0.00 | 0.06 | 0.06 | 23 | 1017.9 |
| 20260507014503 | 56 | 15 | 0.0 | 1.7 | 0.00 | 0.06 | 0.06 | 22 | 1017.9 |
| 20260507013624 | 56 | 323 | 0.9 | 4.3 | 0.00 | 0.06 | 0.06 | 22 | 1017.9 |
| 20260507012715 | 57 | 301 | 0.9 | 3.5 | 0.00 | 0.06 | 0.06 | 21 | 1017.9 |
| 20260507011815 | 58 | 349 | 0.0 | 3.5 | 0.00 | 0.06 | 0.06 | 20 | 1017.9 |
| 20260507010924 | 58 | 349 | 0.0 | 3.5 | 0.00 | 0.06 | 0.06 | 20 | 1017.9 |
| 20260507010015 | 59 | 350 | 0.0 | 2.6 | 0.00 | 0.06 | 0.06 | 20 | 1017.9 |
| 20260507005415 | 59 | 350 | 0.0 | 2.6 | 0.00 | 0.06 | 0.06 | 20 | 1017.9 |
| 20260507004515 | 60 | 339 | 0.9 | 7.0 | 0.00 | 0.06 | 0.06 | 18 | 1017.9 |
| 20260507003615 | 60 | 332 | 0.9 | 5.2 | 0.00 | 0.06 | 0.06 | 18 | 1017.9 |
| 20260507002736 | 61 | 315 | 0.0 | 2.6 | 0.00 | 0.06 | 0.06 | 18 | 1017.9 |
| 20260507001824 | 61 | 333 | 0.9 | 5.2 | 0.00 | 0.06 | 0.06 | 18 | 1017.9 |
| 20260507000903 | 60 | 283 | 0.0 | 5.2 | 0.00 | 0.06 | 0.06 | 18 | 1017.9 |
| 20260507000015 | 61 | 290 | 0.0 | 2.6 | 0.00 | 0.06 | 0.06 | 18 | 1017.9 |
| 20260506235403 | 60 | 311 | 0.9 | 5.2 | 0.00 | 0.06 | 0.06 | 18 | 1017.9 |
| 20260506234503 | 60 | 248 | 1.7 | 9.6 | 0.00 | 0.06 | 0.06 | 18 | 1017.9 |
| 20260506233636 | 61 | 12 | 1.7 | 13.0 | 0.00 | 0.06 | 0.06 | 19 | 1017.9 |
| 20260506232736 | 61 | 3 | 0.9 | 7.0 | 0.00 | 0.06 | 0.06 | 19 | 1017.9 |
| 20260506231803 | 60 | 239 | 0.0 | 2.6 | 0.00 | 0.06 | 0.06 | 19 | 1017.9 |
| 20260506230915 | 61 | 312 | 0.9 | 6.1 | 0.00 | 0.06 | 0.06 | 18 | 1017.9 |
| 20260506230003 | 60 | 19 | 0.0 | 2.6 | 0.00 | 0.06 | 0.06 | 21 | 1017.9 |
| 20260506225425 | 60 | 20 | 0.0 | 2.6 | 0.00 | 0.06 | 0.06 | 19 | 1017.9 |
| 20260506224515 | 60 | 330 | 1.7 | 19.1 | 0.00 | 0.06 | 0.06 | 20 | 1017.9 |
| 20260506223615 | 61 | 15 | 0.9 | 5.2 | 0.00 | 0.06 | 0.06 | 20 | 1017.9 |
| 20260506222703 | 61 | 353 | 0.9 | 6.1 | 0.00 | 0.06 | 0.06 | 21 | 1017.9 |
| 20260506221815 | 60 | 306 | 1.7 | 7.8 | 0.00 | 0.06 | 0.06 | 21 | 1017.9 |
| 20260506220936 | 60 | 332 | 0.9 | 7.8 | 0.00 | 0.06 | 0.06 | 22 | 1017.9 |
| 20260506220015 | 60 | 27 | 0.9 | 7.8 | 0.00 | 0.06 | 0.06 | 21 | 1017.9 |
| 20260506215415 | 60 | 10 | 1.7 | 9.6 | 0.00 | 0.06 | 0.06 | 22 | 1017.9 |
| 20260506214515 | 60 | 1 | 1.7 | 7.0 | 0.00 | 0.06 | 0.06 | 24 | 1017.9 |
| 20260506213603 | 59 | 273 | 0.9 | 6.1 | 0.00 | 0.06 | 0.06 | 24 | 1017.9 |
| 20260506212715 | 60 | 332 | 2.6 | 7.8 | 0.00 | 0.06 | 0.06 | 22 | 1017.9 |
| 20260506211815 | 59 | 17 | 0.9 | 7.0 | 0.00 | 0.06 | 0.06 | 24 | 1017.9 |
| 20260506210915 | 58 | 46 | 1.7 | 6.1 | 0.00 | 0.06 | 0.06 | 24 | 1017.9 |
| 20260506210003 | 59 | 12 | 2.6 | 8.7 | 0.00 | 0.06 | 0.06 | 24 | 1017.9 |
| 20260506205415 | 58 | 11 | 1.7 | 8.7 | 0.00 | 0.06 | 0.06 | 25 | 1017.9 |
| 20260506204515 | 58 | 9 | 1.7 | 8.7 | 0.00 | 0.06 | 0.06 | 23 | 1017.9 |
| 20260506203615 | 57 | 14 | 0.9 | 7.0 | 0.00 | 0.06 | 0.06 | 25 | 1017.9 |
| 20260506202736 | 57 | 359 | 1.7 | 9.6 | 0.00 | 0.06 | 0.06 | 25 | 1017.9 |
| 20260506201803 | 57 | 21 | 0.9 | 6.1 | 0.00 | 0.06 | 0.06 | 22 | 1017.9 |
| 20260506200903 | 58 | 34 | 1.7 | 6.1 | 0.00 | 0.06 | 0.06 | 24 | 1017.9 |
| 20260506200015 | 58 | 22 | 0.9 | 5.2 | 0.00 | 0.06 | 0.06 | 26 | 1017.9 |
| 20260506195415 | 57 | 35 | 0.9 | 7.8 | 0.00 | 0.06 | 0.06 | 24 | 1017.9 |
| 20260506194536 | 58 | 31 | 1.7 | 10.4 | 0.00 | 0.06 | 0.06 | 24 | 1017.9 |
| 20260506193603 | 58 | 18 | 3.5 | 11.3 | 0.00 | 0.06 | 0.06 | 24 | 1017.9 |
| 20260506192715 | 57 | 45 | 5.2 | 13.0 | 0.00 | 0.06 | 0.06 | 25 | 1017.9 |
| 20260506191815 | 58 | 15 | 3.5 | 11.3 | 0.00 | 0.06 | 0.06 | 25 | 1017.9 |
| 20260506190924 | 58 | 7 | 5.2 | 11.3 | 0.00 | 0.06 | 0.06 | 22 | 1017.9 |
| 20260506190015 | 57 | 11 | 3.5 | 13.0 | 0.00 | 0.06 | 0.06 | 24 | 1017.9 |
| 20260506185415 | 58 | 343 | 0.9 | 7.8 | 0.00 | 0.06 | 0.06 | 25 | 1017.9 |
| 20260506184515 | 57 | 357 | 1.7 | 11.3 | 0.00 | 0.06 | 0.06 | 24 | 1017.9 |
| 20260506183615 | 56 | 11 | 2.6 | 10.4 | 0.00 | 0.06 | 0.06 | 23 | 1017.9 |
| 20260506182703 | 56 | 18 | 1.7 | 10.4 | 0.00 | 0.06 | 0.06 | 26 | 1017.9 |
| 20260506181815 | 56 | 15 | 2.6 | 11.3 | 0.00 | 0.06 | 0.06 | 28 | 1017.9 |
| 20260506180915 | 56 | 38 | 3.5 | 8.7 | 0.00 | 0.06 | 0.06 | 28 | 1017.9 |
| 20260506180015 | 55 | 19 | 2.6 | 11.3 | 0.00 | 0.06 | 0.06 | 29 | 1017.9 |
| 20260506175403 | 54 | 13 | 2.6 | 11.3 | 0.00 | 0.06 | 0.06 | 31 | 1017.9 |
| 20260506174515 | 54 | 23 | 2.6 | 7.8 | 0.00 | 0.06 | 0.06 | 32 | 1017.9 |
| 20260506173615 | 54 | 37 | 3.5 | 8.7 | 0.00 | 0.06 | 0.06 | 29 | 1017.9 |
| 20260506172715 | 55 | 21 | 3.5 | 8.7 | 0.00 | 0.06 | 0.06 | 29 | 1017.9 |
| 20260506171803 | 54 | 18 | 2.6 | 9.6 | 0.00 | 0.06 | 0.06 | 29 | 1017.9 |
| 20260506170915 | 54 | 6 | 3.5 | 12.2 | 0.00 | 0.06 | 0.06 | 33 | 1017.9 |
| 20260506170003 | 55 | 3 | 2.6 | 11.3 | 0.00 | 0.06 | 0.06 | 32 | 1017.9 |
| 20260506165415 | 55 | 345 | 2.6 | 11.3 | 0.00 | 0.06 | 0.06 | 33 | 1017.9 |
| 20260506164515 | 54 | 13 | 1.7 | 9.6 | 0.00 | 0.06 | 0.06 | 35 | 1017.9 |
| 20260506163615 | 53 | 273 | 0.9 | 6.1 | 0.00 | 0.06 | 0.06 | 47 | 1017.9 |
| 20260506162715 | 53 | 350 | 0.0 | 3.5 | 0.00 | 0.06 | 0.06 | 47 | 1017.9 |
| 20260506161815 | 52 | 307 | 0.0 | 3.5 | 0.00 | 0.06 | 0.06 | 47 | 1017.9 |
| 20260506160924 | 52 | 360 | 0.0 | 1.7 | 0.00 | 0.06 | 0.06 | 50 | 1017.9 |
| 20260506160015 | 50 | 0 | 0.0 | 0.0 | 0.00 | 0.06 | 0.06 | 55 | 1017.9 |
| 20260506155415 | 49 | 360 | 0.0 | 2.6 | 0.00 | 0.06 | 0.06 | 59 | 1017.9 |
| 20260506154524 | 48 | 0 | 0.0 | 0.9 | 0.00 | 0.06 | 0.06 | 60 | 1017.9 |
| 20260506153615 | 47 | 354 | 0.0 | 3.5 | 0.00 | 0.06 | 0.06 | 63 | 1017.9 |
| 20260506152703 | 45 | 355 | 0.0 | 5.2 | 0.00 | 0.06 | 0.06 | 59 | 1017.9 |
| 20260506151815 | 45 | 355 | 0.0 | 3.5 | 0.00 | 0.06 | 0.06 | 63 | 1017.9 |
| 20260506150915 | 45 | 355 | 0.9 | 7.0 | 0.00 | 0.06 | 0.06 | 64 | 1017.9 |
| 20260506150015 | 45 | 3 | 0.9 | 7.0 | 0.00 | 0.06 | 0.06 | 68 | 1017.9 |
| 20260506145403 | 44 | 355 | 0.0 | 3.5 | 0.00 | 0.06 | 0.06 | 70 | 1017.9 |
| 20260506144515 | 44 | 356 | 0.0 | 2.6 | 0.00 | 0.06 | 0.06 | 73 | 1017.9 |
| 20260506143615 | 44 | 0 | 0.0 | 0.0 | 0.00 | 0.06 | 0.06 | 76 | 1017.9 |
| 20260506142724 | 43 | 0 | 0.0 | 0.0 | 0.00 | 0.06 | 0.06 | 75 | 1017.9 |
| 20260506141803 | 43 | 0 | 0.0 | 0.0 | 0.00 | 0.06 | 0.06 | 76 | 1017.9 |
| 20260506140915 | 43 | 0 | 0.0 | 0.0 | 0.00 | 0.06 | 0.06 | 76 | 1017.9 |
| 20260506140015 | 43 | 0 | 0.0 | 0.0 | 0.00 | 0.06 | 0.06 | 76 | 1017.9 |
| 20260506135415 | 43 | 0 | 0.0 | 0.0 | 0.01 | 0.06 | 0.06 | 78 | 1017.9 |
| 20260506134503 | 42 | 0 | 0.0 | 0.0 | 0.01 | 0.06 | 0.06 | 80 | 1017.9 |
| 20260506133615 | 42 | 0 | 0.0 | 0.0 | 0.01 | 0.06 | 0.06 | 78 | 1017.9 |
| 20260506132736 | 42 | 0 | 0.0 | 0.0 | 0.02 | 0.06 | 0.06 | 78 | 1017.9 |
| 20260506131815 | 42 | 224 | 0.0 | 3.5 | 0.04 | 0.06 | 0.06 | 77 | 1017.9 |
| 20260506130936 | 42 | 224 | 0.0 | 3.5 | 0.05 | 0.06 | 0.06 | 78 | 1017.9 |
| 20260506130015 | 42 | 223 | 0.0 | 1.7 | 0.05 | 0.06 | 0.06 | 78 | 1017.9 |
| 20260506125403 | 42 | 223 | 0.9 | 7.0 | 0.05 | 0.05 | 0.05 | 77 | 1017.9 |
| 20260506124503 | 42 | 231 | 0.9 | 7.0 | 0.05 | 0.05 | 0.05 | 78 | 1017.9 |
| 20260506123636 | 42 | 261 | 3.5 | 10.4 | 0.05 | 0.05 | 0.05 | 76 | 1017.9 |
| 20260506122715 | 43 | 285 | 2.6 | 13.0 | 0.04 | 0.04 | 0.04 | 75 | 1017.9 |
| 20260506121815 | 44 | 285 | 2.6 | 11.3 | 0.02 | 0.02 | 0.03 | 74 | 1017.9 |
| 20260506120936 | 44 | 284 | 5.2 | 14.8 | 0.01 | 0.01 | 0.01 | 72 | 1017.9 |
| 20260506120015 | 46 | 288 | 7.0 | 17.4 | 0.01 | 0.01 | 0.01 | 68 | 1017.9 |
| 20260506115436 | 48 | 299 | 3.5 | 19.1 | 0.00 | 0.00 | 0.00 | 66 | 1017.9 |
| 20260506114536 | 49 | 292 | 4.3 | 19.1 | 0.00 | 0.00 | 0.00 | 58 | 1017.9 |
| 20260506113615 | 50 | 274 | 1.7 | 8.7 | 0.00 | 0.00 | 0.00 | 55 | 1017.9 |
| 20260506112736 | 50 | 283 | 0.9 | 7.8 | 0.00 | 0.00 | 0.00 | 53 | 1017.9 |
| 20260506111803 | 49 | 295 | 0.9 | 7.8 | 0.00 | 0.00 | 0.00 | 54 | 1017.9 |
| 20260506110915 | 49 | 317 | 0.9 | 8.7 | 0.00 | 0.00 | 0.00 | 56 | 1017.9 |
| 20260506110015 | 48 | 232 | 0.0 | 1.7 | 0.00 | 0.00 | 0.00 | 57 | 1017.9 |
| 20260506105415 | 48 | 0 | 0.0 | 0.0 | 0.00 | 0.00 | 0.00 | 58 | 1017.9 |
| 20260506104503 | 48 | 0 | 0.0 | 0.0 | 0.00 | 0.00 | 0.00 | 58 | 1017.9 |
| 20260506103636 | 48 | 0 | 0.0 | 0.0 | 0.00 | 0.00 | 0.00 | 59 | 1017.9 |
| 20260506102715 | 48 | 0 | 0.0 | 0.0 | 0.00 | 0.00 | 0.00 | 59 | 1017.9 |
| 20260506101803 | 49 | 0 | 0.0 | 0.0 | 0.00 | 0.00 | 0.00 | 59 | 1017.9 |
| 20260506100936 | 50 | 0 | 0.0 | 0.0 | 0.00 | 0.00 | 0.00 | 58 | 1017.9 |
| 20260506100015 | 51 | 0 | 0.0 | 0.0 | 0.00 | 0.00 | 0.00 | 55 | 1017.9 |
| 20260506095436 | 51 | 0 | 0.0 | 0.0 | 0.00 | 0.00 | 0.00 | 53 | 1017.9 |
| 20260506094515 | 51 | 232 | 0.0 | 4.3 | 0.00 | 0.00 | 0.00 | 54 | 1017.9 |
| 20260506093624 | 51 | 232 | 0.0 | 3.5 | 0.00 | 0.00 | 0.00 | 54 | 1017.9 |
| 20260506092715 | 50 | 0 | 0.0 | 0.0 | 0.00 | 0.00 | 0.00 | 54 | 1017.9 |
| 20260506091803 | 50 | 257 | 0.0 | 2.6 | 0.00 | 0.00 | 0.00 | 55 | 1017.9 |
| 20260506090915 | 49 | 236 | 0.0 | 3.5 | 0.00 | 0.00 | 0.00 | 58 | 1017.9 |
| 20260506090015 | 49 | 0 | 0.0 | 0.0 | 0.00 | 0.00 | 0.00 | 59 | 1017.9 |
| 20260506085415 | 49 | 0 | 0.0 | 0.0 | 0.00 | 0.00 | 0.00 | 59 | 1017.9 |
| 20260506084503 | 50 | 0 | 0.0 | 0.0 | 0.00 | 0.00 | 0.00 | 56 | 1017.9 |
| 20260506083603 | 51 | 0 | 0.0 | 0.0 | 0.00 | 0.00 | 0.00 | 54 | 1017.9 |
| 20260506082715 | 51 | 0 | 0.0 | 0.0 | 0.00 | 0.00 | 0.00 | 54 | 1017.9 |
| 20260506081824 | 52 | 0 | 0.0 | 0.0 | 0.00 | 0.00 | 0.00 | 53 | 1017.9 |
| 20260506080915 | 52 | 0 | 0.0 | 0.0 | 0.00 | 0.00 | 0.00 | 53 | 1017.9 |
| 20260506072715 | 53 | 296 | 0.9 | 6.1 | 0.00 | 0.00 | 0.00 | 53 | 1017.9 |
| 20260506071815 | 53 | 256 | 0.9 | 7.0 | 0.00 | 0.00 | 0.00 | 52 | 1017.9 |
| 20260506070915 | 53 | 257 | 0.0 | 4.3 | 0.00 | 0.00 | 0.00 | 51 | 1017.9 |
| 20260506061815 | 55 | 119 | 0.0 | 2.6 | 0.00 | 0.00 | 0.00 | 45 | 1017.9 |
| 20260506060915 | 56 | 227 | 0.0 | 4.3 | 0.00 | 0.00 | 0.00 | 45 | 1017.9 |
| 20260506050915 | 56 | 285 | 0.0 | 4.3 | 0.00 | 0.00 | 0.00 | 46 | 1017.9 |
| 20260506044503 | 56 | 289 | 0.0 | 6.1 | 0.00 | 0.00 | 0.00 | 45 | 1017.9 |
| 20260506043615 | 56 | 294 | 0.0 | 3.5 | 0.00 | 0.00 | 0.00 | 45 | 1017.9 |
| 20260506042715 | 57 | 256 | 0.0 | 4.3 | 0.00 | 0.00 | 0.00 | 44 | 1017.9 |
| 20260506041815 | 57 | 242 | 0.9 | 7.0 | 0.00 | 0.00 | 0.00 | 43 | 1017.9 |
| 20260506040915 | 57 | 228 | 0.9 | 5.2 | 0.00 | 0.00 | 0.00 | 43 | 1017.9 |